[[{"header":{"parameterUnit":"m.s-1","parameterCategory":1,"la1":30.2991,"la2":30.254,"lo1":-89.0895,"lo2":-89.0444,"dy":0.0017,"dx":0.0017,"nx":28,"ny":28,"refTime":"2025-04-18T21:00:00:Z","depth":0,"parameterNumber":2,"parameterNumberName":"U-component_of_WINDS"},"data":[0,0,0,0,0,0,0,0,0,0,0,0,0,0,0,0,0,0,0,0,0,0,0,0,0,0,0,0,0,0,0,0,0,0,0,0,0,0,0,0,0,0,0,0,0,0,0,0,0,0,0,0,0,0,0,0,0,0,-6.5009,-6.5009,0,-6.5052,-6.5052,-6.5053,-6.4995,-6.4993,-6.4991,-6.4989,-6.5029,-6.5032,-6.5035,0,0,0,0,0,0,0,0,0,0,0,0,0,-6.4874,-6.4877,-6.5009,-6.5009,-6.501,-6.5052,-6.5052,-6.5053,-6.4995,-6.4993,-6.499,-6.4988,-6.5028,-6.5031,-6.5035,0,0,0,0,0,0,0,0,0,0,0,0,0,-6.4926,-6.4878,-6.5009,-6.4986,-6.4985,-6.5051,-6.5052,-6.5053,-6.4996,-6.4993,-6.499,-6.4987,-6.5027,-6.5031,-6.5035,-6.5124,0,0,-6.5049,-6.5051,0,0,0,0,0,0,0,0,-6.4924,-6.4931,-6.4989,-6.4988,-6.4986,-6.5015,-6.5019,-6.5077,-6.4997,-6.4992,-6.4989,-6.4985,-6.5026,-6.5031,-6.5045,-6.5126,-6.5128,-6.5049,-6.5052,-6.5054,-6.5055,0,0,0,0,0,0,0,-6.492,-6.4929,-6.5025,-6.499,-6.4988,-6.4973,-6.4977,-6.503,-6.5025,-6.4992,-6.4988,-6.4994,-6.5025,-6.5041,-6.5046,-6.5129,-6.5049,-6.5053,-6.5056,-6.5058,-6.5285,-6.5288,0,0,0,0,0,0,-6.492,-6.4927,-6.5024,-6.5027,-6.4947,-6.4978,-6.4983,-6.5009,-6.5025,-6.5024,-6.4996,-6.4991,-6.5035,-6.5041,-6.5047,-6.5151,-6.5054,-6.5058,-6.5061,-6.5282,-6.5286,-6.529,0,0,0,0,0,0,-6.4917,-6.4929,-6.5022,-6.4976,-6.4986,-6.4984,-6.5014,-6.5011,-6.5027,-6.5028,-6.5027,-6.5014,-6.5033,-6.5041,-6.5106,-6.5152,-6.506,-6.5064,-6.5278,-6.5283,-6.5288,-6.5362,0,0,0,0,0,0,-6.4913,-6.4928,-6.4962,-6.4977,-6.4989,-6.5081,-6.5016,-6.5014,-6.5036,-6.5029,-6.5044,-6.5044,-6.5031,-6.51,-6.511,-6.5156,-6.5068,-6.5274,-6.528,-6.5286,-6.5355,-6.5368,-6.538,0,0,0,0,0,-6.4909,-6.498,-6.4964,-6.4976,-6.5032,-6.5084,-6.5091,-6.5076,-6.504,-6.5073,-6.5075,-6.5043,-6.5146,-6.5107,-6.5118,-6.5166,-6.5271,-6.5278,-6.5286,-6.5349,-6.5366,-6.538,0,0,0,0,0,0,-6.4969,-6.4982,-6.4964,-6.5043,-6.5063,-6.5074,-6.5116,-6.5094,-6.5123,-6.5116,-6.5095,-6.5099,-6.5168,-6.5175,-6.513,-6.5254,-6.5202,-6.5213,-6.5247,-6.5262,-6.5275,-6.527,-6.5071,0,0,0,0,0,-6.4992,-6.5034,-6.5043,-6.5112,-6.5123,-6.5119,-6.514,-6.5128,-6.5147,-6.5155,-6.516,-6.5179,-6.5216,-6.524,-6.5274,-6.5357,-6.5359,-6.5396,-6.5409,-6.5419,-6.5427,-6.5471,-6.5487,-6.5314,-6.5314,-6.5314,0,0,-6.5038,-6.5051,-6.5078,-6.5124,-6.5138,-6.5181,-6.5126,-6.5173,-6.5205,-6.5161,-6.5223,-6.5229,-6.5249,-6.5323,-6.5356,-6.533,-6.5476,-6.5429,-6.5437,-6.5439,-6.548,-6.5497,-6.5511,-6.532,-6.5319,-6.5318,0,0,-6.5145,-6.516,-6.5218,-6.5234,-6.5257,-6.5254,-6.5269,-6.5285,-6.5287,-6.5349,-6.5318,-6.5355,-6.5419,-6.5434,-6.545,-6.5567,-6.5539,-6.5579,-6.5643,-6.5686,-6.5699,-6.5711,-6.5751,-6.5766,-6.5588,-6.5588,-6.5588,0,-6.5199,-6.5264,-6.525,-6.5301,-6.5322,-6.5288,-6.5346,-6.5362,-6.5395,-6.5409,-6.5381,-6.5461,-6.5472,-6.5549,-6.5578,-6.5593,-6.5608,-6.5574,-6.5699,-6.5711,-6.5722,-6.5759,-6.5774,-6.5592,-6.5592,-6.5591,-6.5591,0,-6.5328,-6.5374,-6.5419,-6.5453,-6.5479,-6.5534,-6.5528,-6.5556,-6.5543,-6.5543,-6.5607,-6.562,-6.5655,-6.5674,-6.566,-6.575,-6.5733,-6.5703,-6.5649,-6.5743,-6.5777,-6.5792,-6.5599,-6.5597,-6.5596,-6.5595,0,0,-6.5469,-6.5498,-6.5514,-6.553,-6.5555,-6.5589,-6.5643,-6.568,-6.5703,-6.5728,-6.5771,-6.5828,-6.58,-6.5819,-6.5807,-6.5846,-6.5935,-6.581,-6.581,-6.5831,-6.6033,-6.6053,-6.607,-6.5919,-6.5922,-6.5924,-6.6031,0,-6.5574,-6.5667,-6.5658,-6.5746,-6.5787,-6.5758,-6.5804,-6.5824,-6.5827,-6.5862,-6.5864,-6.5904,-6.5866,-6.5877,-6.5914,-6.5916,-6.5975,-6.5909,-6.5956,-6.5958,-6.5948,-6.6089,-6.611,-6.621,-6.6044,-6.6047,-6.6048,0,-6.5707,-6.5738,-6.5831,-6.5851,-6.5868,-6.591,-6.5943,-6.5978,-6.6,-6.6,-6.6023,-6.6005,-6.6058,-6.6008,-6.608,-6.6035,-6.6055,-6.606,-6.6063,-6.6063,-6.6006,-6.609,-6.6241,-6.6255,-6.607,-6.6068,-6.6067,0,-6.5797,-6.5863,-6.5927,-6.5941,-6.5966,-6.5997,-6.6008,-6.6028,-6.6051,-6.6081,-6.6095,-6.6131,-6.6149,-6.6177,-6.6169,-6.6134,-6.6243,-6.6192,-6.6241,-6.6242,-6.6262,-6.626,-6.6415,-6.6281,-6.6281,-6.628,-6.628,0,-6.5912,-6.5969,-6.5968,-6.6006,-6.607,-6.606,-6.6123,-6.6131,-6.6149,-6.6188,-6.6166,-6.6203,-6.6192,-6.6229,-6.6223,-6.6283,-6.6292,-6.6292,-6.6289,-6.6292,-6.6291,-6.6301,-6.6293,-6.6284,-6.6283,-6.6283,-6.6282,0,-6.6022,-6.6023,-6.6091,-6.6111,-6.6117,-6.6163,-6.6179,-6.6215,-6.6218,-6.6268,-6.6279,-6.6282,-6.6324,-6.6321,-6.6368,-6.6364,-6.6437,-6.6428,-6.643,-6.6426,-6.6475,-6.647,-6.6639,-6.666,-6.6515,-6.6517,-6.6518,0,-6.6093,-6.6137,-6.6163,-6.6188,-6.6203,-6.6244,-6.6268,-6.6261,-6.6287,-6.6318,-6.635,-6.6391,-6.6423,-6.6492,-6.6497,-6.6533,-6.6522,-6.658,-6.6527,-6.6529,-6.652,-6.6516,-6.652,-6.6588,-6.659,-6.6591,-6.6593,0,-6.622,-6.6219,-6.6256,-6.6294,-6.6324,-6.6353,-6.6379,-6.6401,-6.6397,-6.6428,-6.6472,-6.6497,-6.6546,-6.6586,-6.6621,-6.6632,-6.6611,-6.661,-6.6623,-6.6624,-6.6622,-6.6621,-6.6454,-6.6605,-6.6604,-6.6603,-6.6602,-6.6602,-6.631,-6.6348,-6.6372,-6.6414,-6.6434,-6.646,-6.6495,-6.6504,-6.6541,-6.6581,-6.6575,-6.6624,-6.6646,-6.6691,-6.6706,-6.6744,-6.6723,-6.6742,-6.6746,-6.675,-6.6755,-6.662,-6.6751,-6.675,-6.675,-6.675,-6.6749,0,-6.6433,-6.6449,-6.6488,-6.6526,-6.656,-6.6541,-6.657,-6.6598,-6.6642,-6.6666,-6.6699,-6.6749,-6.6789,-6.6799,-6.6837,-6.6865,-6.6857,-6.6875,-6.6871,-6.6873,-6.6773,-6.6756,-6.6881,-6.6881,-6.6881,-6.6881,-6.6881,-6.6881,-6.6501,-6.6563,-6.6566,-6.6638,-6.6652,-6.6701,-6.6719,-6.6743,-6.6762,-6.682,-6.6853,-6.6861,-6.6879,-6.6919,-6.6954,-6.6956,-6.697,-6.6991,-6.6989,-6.6894,-6.6881,-6.6868,-6.6852,-6.6995,-6.6995,-6.7087,-6.7088,-6.7088]},{"header":{"parameterUnit":"m.s-1","parameterCategory":1,"la1":30.2991,"la2":30.254,"lo1":-89.0895,"lo2":-89.0444,"dy":0.0017,"dx":0.0017,"nx":28,"ny":28,"refTime":"2025-04-18T21:00:00:Z","depth":0,"parameterNumber":3,"parameterNumberName":"V-component_of_WINDS"},"data":[0,0,0,0,0,0,0,0,0,0,0,0,0,0,0,0,0,0,0,0,0,0,0,0,0,0,0,0,0,0,0,0,0,0,0,0,0,0,0,0,0,0,0,0,0,0,0,0,0,0,0,0,0,0,0,0,0,0,4.221,4.221,0,4.2251,4.2251,4.2252,4.2267,4.2267,4.2267,4.2267,4.2304,4.2305,4.2306,0,0,0,0,0,0,0,0,0,0,0,0,0,4.214,4.2142,4.221,4.221,4.2211,4.2251,4.2251,4.2252,4.2267,4.2267,4.2267,4.2267,4.2303,4.2304,4.2306,0,0,0,0,0,0,0,0,0,0,0,0,0,4.2175,4.2142,4.221,4.2223,4.2225,4.2251,4.2251,4.2252,4.2267,4.2267,4.2267,4.2267,4.2303,4.2304,4.2306,4.232,0,0,4.2311,4.2312,0,0,0,0,0,0,0,0,4.2173,4.2177,4.2221,4.2222,4.2224,4.2254,4.2241,4.2275,4.2267,4.2251,4.2267,4.2267,4.2287,4.229,4.2298,4.2321,4.2323,4.2311,4.2312,4.2313,4.2313,0,0,0,0,0,0,0,4.217,4.2176,4.2226,4.2221,4.2224,4.2226,4.2231,4.2247,4.2269,4.2252,4.2254,4.2259,4.2288,4.2296,4.2299,4.2323,4.2311,4.2313,4.2314,4.2314,4.2362,4.2362,0,0,0,0,0,0,4.2166,4.2174,4.2225,4.2227,4.2198,4.2228,4.2233,4.2244,4.2269,4.2273,4.2259,4.2259,4.2293,4.2297,4.23,4.2319,4.2313,4.2314,4.2315,4.2362,4.2362,4.2362,0,0,0,0,0,0,4.2165,4.2171,4.2223,4.2201,4.2208,4.2229,4.2242,4.2245,4.2254,4.2274,4.2277,4.2263,4.2293,4.2298,4.2315,4.232,4.2315,4.2317,4.2361,4.2362,4.2362,4.2356,0,0,0,0,0,0,4.2163,4.217,4.2176,4.2201,4.2209,4.2239,4.2242,4.2246,4.2257,4.2258,4.2279,4.2283,4.2294,4.2313,4.2317,4.2322,4.2318,4.2361,4.2362,4.2362,4.2356,4.2356,4.2356,0,0,0,0,0,4.216,4.2171,4.2177,4.2183,4.2217,4.2239,4.2243,4.2257,4.2258,4.2264,4.2277,4.2282,4.2319,4.2315,4.2319,4.2325,4.2361,4.2361,4.2362,4.2356,4.2356,4.2356,0,0,0,0,0,0,4.2144,4.2175,4.2181,4.22,4.2217,4.2242,4.2249,4.2257,4.2273,4.2273,4.2288,4.2292,4.2309,4.2319,4.2313,4.2341,4.234,4.2342,4.2334,4.2334,4.2334,4.2332,4.2319,0,0,0,0,0,4.2143,4.216,4.2185,4.22,4.2208,4.2228,4.2237,4.2247,4.2264,4.2271,4.2285,4.2301,4.2316,4.2325,4.234,4.2357,4.2362,4.2364,4.2364,4.2364,4.2365,4.2376,4.2377,4.2364,4.2364,4.2364,0,0,4.2141,4.216,4.2169,4.2197,4.2211,4.2228,4.2233,4.2249,4.2261,4.2273,4.2291,4.2302,4.232,4.2338,4.2347,4.2347,4.237,4.2365,4.2365,4.2366,4.2377,4.2378,4.2379,4.2365,4.2365,4.2365,0,0,4.2145,4.2161,4.2176,4.2191,4.2213,4.2226,4.223,4.2254,4.2262,4.2282,4.2291,4.2305,4.233,4.2344,4.2353,4.2365,4.2371,4.2369,4.2371,4.2381,4.2382,4.2383,4.2388,4.2389,4.237,4.237,4.237,0,4.2138,4.2165,4.2182,4.2199,4.2211,4.2225,4.224,4.2253,4.2278,4.2286,4.2286,4.2321,4.2333,4.2355,4.2358,4.2366,4.237,4.2367,4.2381,4.2382,4.2383,4.2388,4.239,4.237,4.237,4.237,4.237,0,4.2156,4.2174,4.2184,4.2211,4.2224,4.224,4.2259,4.227,4.2279,4.2291,4.2311,4.2328,4.2347,4.2353,4.236,4.2376,4.2376,4.2378,4.2378,4.2384,4.2389,4.2391,4.237,4.237,4.237,4.237,0,0,4.2149,4.2189,4.2192,4.2205,4.2232,4.2246,4.2262,4.2283,4.2293,4.231,4.2324,4.2347,4.235,4.2362,4.2371,4.238,4.2389,4.2382,4.2382,4.2383,4.2409,4.2407,4.2409,4.2394,4.2394,4.2394,4.2407,0,4.2158,4.219,4.2207,4.2232,4.2249,4.2264,4.2278,4.2295,4.2308,4.2324,4.2337,4.2353,4.2356,4.2363,4.2373,4.2386,4.2395,4.2385,4.2406,4.2407,4.2402,4.2411,4.2409,4.2421,4.2409,4.241,4.241,0,4.2171,4.2192,4.2219,4.2246,4.2254,4.2267,4.2289,4.2304,4.2324,4.2333,4.2347,4.2356,4.2373,4.2372,4.2396,4.239,4.2399,4.2407,4.2408,4.241,4.2409,4.2415,4.2425,4.2427,4.2413,4.2413,4.2412,0,4.2165,4.2199,4.2221,4.2231,4.2263,4.2272,4.2285,4.2306,4.2318,4.2337,4.2345,4.2364,4.2375,4.2389,4.2403,4.2401,4.2426,4.2426,4.2433,4.2433,4.2438,4.2437,4.245,4.2443,4.2443,4.2443,4.2443,0,4.2173,4.2189,4.2219,4.2232,4.2251,4.227,4.2287,4.2301,4.2319,4.2335,4.2347,4.2361,4.2379,4.2395,4.2406,4.2425,4.2429,4.2436,4.2439,4.2435,4.2434,4.2441,4.2441,4.2443,4.2443,4.2443,4.2443,0,4.2169,4.2189,4.2214,4.2243,4.2251,4.2264,4.2288,4.2301,4.2315,4.2334,4.234,4.2361,4.2381,4.2397,4.2421,4.2429,4.2449,4.2451,4.2443,4.2444,4.2451,4.2451,4.2469,4.2473,4.2463,4.2463,4.2463,0,4.2172,4.2186,4.2218,4.2231,4.2245,4.2264,4.2278,4.2297,4.231,4.2336,4.2346,4.2367,4.2384,4.2415,4.2431,4.2451,4.2454,4.246,4.2457,4.2454,4.2455,4.2455,4.2457,4.246,4.246,4.246,4.246,0,4.2177,4.2188,4.2208,4.2233,4.225,4.2269,4.2289,4.2298,4.2321,4.2335,4.2357,4.2371,4.2398,4.2418,4.244,4.2452,4.246,4.2461,4.2464,4.246,4.2455,4.2459,4.2444,4.246,4.246,4.246,4.246,4.246,4.2178,4.2191,4.2217,4.224,4.2257,4.2276,4.2291,4.2308,4.2327,4.2352,4.2362,4.2384,4.2405,4.2435,4.2447,4.2464,4.2465,4.2469,4.247,4.2471,4.2471,4.2453,4.2468,4.2468,4.2468,4.2468,4.2468,0,4.2184,4.2202,4.2223,4.2252,4.227,4.2279,4.2302,4.2316,4.2336,4.2356,4.2374,4.2399,4.242,4.2439,4.2461,4.2471,4.2475,4.2475,4.2475,4.2478,4.2468,4.2464,4.2472,4.2472,4.2472,4.2472,4.2472,4.2472,4.2189,4.2213,4.2227,4.226,4.2277,4.2301,4.2314,4.2331,4.2347,4.2376,4.2394,4.2408,4.2427,4.2451,4.247,4.2475,4.2482,4.2482,4.2488,4.2479,4.2478,4.2478,4.2474,4.2484,4.2484,4.2497,4.2497,4.2497]}]]